Terminal Aerodrome Forecast
Issued by NWS

Home | Current Version | Previous Version | Text Only | Print | Product List | Glossary On
Versions: 1 2 3 4 5 6 7 8 9 10 11 12 13 14 15 16 17 18 19 20 21 22 23 24 25 26 27 28 29 30 31 32 33 34 35 36 37 38 39 40 41 42 43 44 45 46 47 48 49 50
000
FTUS44 KHGX 220909 AAA
TAFIAH
TAF AMD
KIAH 220909Z 2209/2312 05005KT P6SM SCT009 OVC012
      TEMPO 2210/2212 BKN009
     FM221400 07007KT P6SM BKN015 BKN025
     FM221800 09007KT P6SM VCTS SCT015 BKN025CB
     FM222300 12008KT P6SM BKN050
     FM230500 12005KT P6SM BKN020=

USA.gov is the U.S. government's official web portal to all federal, state and local government web resources and services.